Flag for Netherlands Weather past 2 weeks in Dordrecht, Netherlands

Now
64 °F

Mild.


Feels Like: 64 °F
Forecast: 59 / 69 °F
Wind: 2 mph from Northeast

Location: Rotterdam Zestienhoven Airport

Current Time: Aug 4, 2015 at 12:35:11 AM

Latest Report: Aug 3, 2015 at 11:25 PM


Visibility: N/A

Pressure: 29.89 "Hg

Humidity: 88%

Dew point: 61 °F

Location of DordrechtLocation

Historic Weather in Dordrecht — Graph

°F

Dordrecht temperature yesterday

Maximum temperature yesterday: 81 °F (at 12:25 PM)
Minimum temperature yesterday: 61 °F (at 5:55 AM)
Average temperature yesterday: 71 °F

Past Weeks' High & Low Weather Summary

 TemperatureHumidityPressure
High81 °F (Aug 3, 12:25 PM)100% (Jul 20, 5:25 PM)30.15 "Hg (Jul 20, 5:25 PM)
Low45 °F (Jul 31, 4:55 AM)39% (Aug 2, 4:25 PM)29.42 "Hg (Jul 25, 6:25 AM)
Average63 °F74%29.87 "Hg
* Reported Jul 19 10:25 PM — Aug 3 10:55 PM, Dordrecht, Weather by CustomWeather, © 2015

Note: Actual official high and low records may vary slightly from our data, if they occured in-between our weather recording intervals... More about our weather records

Advertising

Dordrecht weather history for previous 24 hours

 ConditionsComfort  
Time TempWeatherWind HumidityBarometerVisibility
10:55 PM
Mon, Aug 3
64 °FMild.1 mph83%29.89 "HgN/A
10:25 PM68 °FMild.2 mph73%29.89 "HgN/A
9:55 PM66 °FMild.2 mph83%29.89 "HgN/A
9:25 PM70 °FClear.2 mph78%29.89 "HgN/A
8:55 PM72 °FMild.2 mph73%29.89 "HgN/A
8:25 PM73 °FClear.2 mph69%29.89 "HgN/A
7:55 PM72 °FMild.5 mph73%29.89 "HgN/A
7:25 PM72 °FClear.7 mph73%29.92 "HgN/A
6:55 PM73 °FClear.8 mph69%29.89 "HgN/A
6:25 PM75 °FMild.9 mph65%29.89 "HgN/A
5:55 PM75 °FClear.9 mph65%29.92 "HgN/A
5:25 PM75 °FClear.9 mph65%29.92 "HgN/A
4:55 PM73 °FClear.10 mph69%29.92 "HgN/A
4:25 PM77 °FWarm.10 mph61%29.92 "HgN/A
3:55 PM77 °FWarm.9 mph61%29.92 "HgN/A
3:25 PM77 °FClear.12 mph65%29.92 "HgN/A
2:55 PM77 °FWarm.12 mph61%29.92 "HgN/A
2:25 PM77 °FClear.10 mph57%29.92 "HgN/A
1:55 PM75 °FClear.12 mph61%29.92 "HgN/A
1:25 PM75 °FClear.15 mph57%29.92 "HgN/A
12:55 PM77 °FClear.14 mph54%29.92 "HgN/A
12:25 PM81 °FWarm.14 mph48%29.92 "HgN/A
11:55 AM79 °FClear.12 mph48%29.92 "HgN/A
11:25 AM79 °FWarm.10 mph51%29.89 "HgN/A
10:55 AM77 °FWarm.10 mph51%29.89 "HgN/A
10:25 AM77 °FClear.12 mph51%29.89 "HgN/A
9:55 AM73 °FMild.12 mph57%29.89 "HgN/A
9:25 AM72 °FMild.10 mph57%29.89 "HgN/A
8:55 AM72 °FClear.12 mph57%29.89 "HgN/A
8:25 AM70 °FClear.9 mph57%29.89 "HgN/A
7:55 AM68 °FMild.6 mph64%29.89 "HgN/A
7:25 AM64 °FClear.3 mph68%29.89 "HgN/A
6:55 AM63 °FMild.3 mph73%29.89 "HgN/A
6:25 AM63 °FMild.5 mph68%29.89 "HgN/A
5:55 AM61 °FCool.5 mph72%29.92 "HgN/A
4:55 AM63 °FMild.7 mph64%29.92 "HgN/A
4:25 AM63 °FMild.6 mph64%29.92 "HgN/A
3:55 AM63 °FMild.7 mph64%29.95 "HgN/A
3:25 AM64 °FMild.7 mph64%29.95 "HgN/A
2:55 AM64 °FMild.8 mph64%29.95 "HgN/A
2:25 AM64 °FClear.8 mph64%29.98 "HgN/A
1:55 AM66 °FClear.8 mph60%29.98 "HgN/A
1:25 AM66 °FClear.9 mph60%29.98 "HgN/A
12:55 AM66 °FMild.9 mph60%30.01 "HgN/A
12:25 AM66 °FMild.12 mph64%30.01 "HgN/A
Weather by CustomWeather, © 2015

See weather overviewHow to use our weather pages